DECAYED

STARLINK-1210, 45207 (Decayed)

Orbit data source: Space-Track

STARLINK-1210, 45207 was a payload satellite owned by SpaceX/Seattle (US) in LEO that was launched on Mon, 17 Feb 2020 UTC via an FALCON 9 launch vehicle from the Air Force Eastern Test Range (AFETR). Payload-class satellites include a variety of spacecraft equipped with specific instruments for various scientific and technological missions. These include communications satellites like Starlink; space stations such as the ISS; scientific satellites like the Hubble; Earth observation satellites from companies like Planet Labs, Umbra, and HawkEye 360; GPS; miniature CubeSats for education and research; and military/defense satellites.

Not visible in the next 10 days
Identifier
45207, 2020-012AF
Orbit
Decayed
Country
Flag of USUS
Related business
Manufacturer
SpaceX/Seattle
Mission
Decayed Commercial Communications
Bus & Motor
STARLINK, Unknown motor
Mass
260 kg wet, ~248 kg dry
Launch date (UTC)
2020-02-17 (7 years ago)
Launch vehicle
FALCON 9
Launch site
Air Force Eastern Test Range (AFETR)
Object type
Payload
Rocket body
Debris
Shape & HBR
Box + 1 Pan, 10.1 m
Radar Cross Section
13.562 m², Large (>1 m²)

Expand to show TLE details & history
Last TLE update: 6 months ago

TLE from 6 months ago
0 STARLINK-1210
1 45207U 20012AF  26063.02727991  .08718507  12440-4  52265-3 0  9991
2 45207  52.9966 287.3537 0006915 287.6817  72.3475 16.41479168336010
Epoch: 2026-03-04T00:39Z
TLE epoch observation values (Epoch: 2026-03-04T00:39:16.984Z)
Latitude
0.00005°
Longitude
115.73509°
Altitude
161.426 km
Speed
7.811 km/s
True Right ascension
19h 09m 24s
True Declination
0° 00' 00"
Sunlit
Object was in daylight at epoch
Visualization orbit readout
Latitude
Unknown
Longitude
Unknown
Altitude
Unknown
Speed
Unknown
Apparent Right ascension
Unknown
Apparent Declination
Unknown
Sunlit
N/A
Visualization observer readout
Local Sidereal Time
01:37:11
Azimuth
Unknown
Elevation
Unknown
Doppler factor
Unknown
Orbital elements
Apogee altitude
166.689 km
Perigee altitude
157.644 km
Semi-major axis
6,540.304 km
Eccentricity
0.00069
Inclination
52.9966°
RAAN
287.3537°
Arg. of periapsis
287.6817°
True anomaly
72.42303°
Mean anomaly
72.3475°
Eccentric anomaly
72.38526°
Mean motion
4.10342 °/min
Orbital period
87.73 mins
BSTAR
0.00052265
Loading maneuver chart data...
Computing Atmospheric mass density...

Documentation

Showing up to 5 results
|